This demonstration page uses our WeatherBlox Daily Observations layout. Learn more.

Left ArrowRight Arrow

Hourly Observations for November 30, 2018

Temp ( °F °C ) Dew Point ( °F °C ) Humidity (%) Winds ( mph kmh ) Pressure ( in mb ) Visibility ( mi km ) Precip ( " mm )
6:30 am 06:30 Cloudy with Fog 39 4 37 3 93 93 Calm 29.97 1015 1 1 N/A
6:45 am 06:45 Cloudy with Fog 39 4 37 3 93 93 Calm 29.97 1015 1 1 N/A
7:20 am 07:20 Cloudy with Mist and Fog 39 4 37 3 93 93 Calm 29.97 1015 1 2 N/A
7:47 am 07:47 Cloudy with Mist and Fog 39 4 37 3 93 93 Calm 29.97 1015 1 2 N/A
8:53 am 08:53 Cloudy with Mist and Fog 41 5 39 4 93 93 Calm 30.00 1016 2 2 N/A
9:51 am 09:51 Cloudy with Mist and Fog 41 5 39 4 93 93 Calm 30.03 1017 2 2 N/A
10:29 am 10:29 Cloudy with Mist and Fog 45 7 41 5 87 87 Calm 30.00 1016 2 3 N/A
10:45 am 10:45 Cloudy with Mist and Fog 45 7 41 5 87 87 Calm 30.00 1016 3 4 N/A
11:29 am 11:29 Mostly Cloudy with Mist and Fog 46 8 41 5 82 82 E 6 9 30.00 1016 3 5 N/A
11:45 am 11:45 Mostly Cloudy with Mist and Fog 46 8 41 5 82 82 E 6 9 30.00 1016 3 5 N/A
12:31 pm 12:31 Partly Cloudy with Mist and Fog 48 9 43 6 82 82 Calm 30.00 1016 5 8 N/A
12:47 pm 12:47 Mostly Cloudy with Mist and Fog 48 9 43 6 82 82 Calm 29.97 1015 5 8 N/A
1:49 pm 13:49 Partly Cloudy 50 10 39 4 67 67 Calm 30.00 1016 7 11 N/A
2:45 pm 14:45 Mostly Sunny 52 11 39 4 62 62 Calm 29.97 1015 10 16 N/A
3:45 pm 15:45 Mostly Cloudy 52 11 39 4 62 62 Calm 30.00 1016 10 16 N/A
4:45 pm 16:45 Partly Cloudy 48 9 41 5 76 76 E 12 19 30.00 1016 10 16 N/A
5:45 pm 17:45 Partly Cloudy 45 7 39 4 81 81 NNE 9 15 30.00 1016 10 16 N/A
6:45 pm 18:45 Cloudy 43 6 39 4 87 87 NE 5 7 30.06 1018 10 16 N/A
7:45 pm 19:45 Cloudy with Mist and Fog 45 7 39 4 81 81 ENE 6 9 30.03 1017 5 8 N/A
8:45 pm 20:45 Cloudy with Mist and Fog 45 7 39 4 81 81 ESE 3 6 30.03 1017 5 8 N/A
9:45 pm 21:45 Cloudy 45 7 41 5 87 87 ESE 7 11 30.03 1017 7 11 N/A

Powered by AerisWeather